Skip Page Navigation
NASA JPL Caltech
NASA Logo - Jet Propulsion Laboratory + View the NASA Portal
+ Center for Near-Earth Object Studies
JPL Home Earth Solar System Stars & Galaxies Technology
JPL Solar System Dynamics
BODIES ORBITS EPHEMERIDES TOOLS PHYSICAL DATA DISCOVERY FAQ SITE MAP
IMPORTANT: The SSD Announcement email list is now available. Major changes are coming in the near future, including possible hostname and/or URL changes. To be notified of such changes, subscribe to this email list.

Please visit this page for more details.


JPL Small-Body Database Browser
Search: [ help ]  
423863 (2006 RP14)
Classification: Main-belt Asteroid          SPK-ID: 2423863
Ephemeris | Orbit Diagram | Orbital Elements | Mission Design | Physical Parameters | Discovery Circumstances ]

[ show orbit diagram ]
Orbital Elements at Epoch 2459000.5 (2020-May-31.0) TDB
Reference: JPL 16 (heliocentric ecliptic J2000)
 Element Value Uncertainty (1-sigma)   Units 
e .1423029079823904 7.3326e-08  
a 2.307979262764981 2.5077e-08 au
q 1.979547102110471 1.6677e-07 au
i 7.36355767463056 7.2382e-06 deg
node 223.5088853610436 5.5557e-05 deg
peri 131.4043433809315 6.1827e-05 deg
M 317.9492725616318 3.6102e-05 deg
tp 2459150.095073930911
(2020-Oct-27.59507393)
0.00013029 TDB
period 1280.696670326561
3.51
2.0872e-05
5.714e-08
d
yr
n .2810970062943982 4.5812e-09 deg/d
Q 2.636411423419491 2.8645e-08 au
  Orbit Determination Parameters
   # obs. used (total)      95  
   data-arc span      4606 days (12.61 yr)  
   first obs. used      2006-09-14  
   last obs. used      2019-04-25  
   planetary ephem.      DE431  
   SB-pert. ephem.      SB431-N16  
   condition code      0  
   norm. resid. RMS      .59542  
   source      ORB  
   producer      Otto Matic  
   solution date      2019-Jul-14 07:45:11  

Additional Information
 Earth MOID = .984664 au 
 Jupiter MOID = 2.83821 au 
 T_jup = 3.562 
[ show covariance matrix ]

Ephemeris | Orbit Diagram | Orbital Elements | Mission Design | Physical Parameters | Discovery Circumstances ]

Physical Parameter Table
Parameter Symbol Value Units Sigma Reference Notes
absolute magnitude H 17.6   n/a MPO434533  

423863 (2006 RP14)          Discovered 2006-Sep-14 by Spacewatch at Kitt Peak
Reference: Last Updated: 2015-02-04
Ephemeris | Orbit Diagram | Orbital Elements | Mission Design | Physical Parameters | Discovery Circumstances ]
ABOUT SSD CREDITS/AWARDS PRIVACY/COPYRIGHT GLOSSARY LINKS
FirstGov 2020-Feb-26 14:42 UT
(server date/time)  
NASA Home Page
Site Manager:   Ryan S. Park
Webmaster  Alan B. Chamberlin